User: anonymous   Login
Location: New Plymouth
(39.0670°S, 174.0830°E)
Time: 10:20:21
(UTC+13:00)
Language:

Helios 1B rocket - Orbit

View from above orbital plane
View from above orbital plane
View from above satellite
View from above satellite

Ground track
Ground track

The orbit data is extracted from the following two-line orbital elements,

1 25979U 99064C   19082.17890906  .00000686  00000-0  67371-4 0  9998
2 25979  98.1703 336.9340 0006230   0.3614 359.7609 14.95688339 46437
Epoch (UTC): 23 March 2019 04:17:37
Eccentricity: 0.0006230
inclination: 98.1703°
perigee height: 576 km
apogee height: 584 km
right ascension of ascending node: 336.9340°
argument of perigee: 0.3614°
revolutions per day: 14.95688339
mean anomaly at epoch: 359.7609°
orbit number at epoch: 4643

The dashed part of the orbit path shows where the satellite is in the earth's shadow,  

DLR